Location: Aldenham
(51.6667°N, 0.3500°W)
Time: 17:02:36
(UTC+00:00)

ATLAS 2AS CENTAUR R/B - Pass Details

Date: 18 November 2025
Orbit: 1047 x 1163 km, 63.7° (Epoch: 09 December)

Event Time Altitude Azimuth Distance (km) Brightness Sun altitude
Rises 19:20:04 0° 315° (NW) 3,851 6.3 -29.5°
Reaches altitude 10° 19:22:43 10° 314° (NW) 2,884 5.5 -29.9°
Maximum altitude 19:29:31 83° 229° (SW) 1,063 2.6 -31.0°
Enters shadow 19:29:41 82° 201° (SSW) 1,064 2.5 -31.0°
